Time,TemperatureF,DewpointF,PressureIn,WindDirection,WindDirectionDegrees,WindSpeedMPH,WindSpeedGustMPH,Humidity,HourlyPrecipIn,Conditions,Clouds,dailyrainin,SoftwareType,DateUTC
2013-05-23 00:00:00,66.7,64.0,29.87,WSW,246,0.0,0.0,91,0.00,,,0.00,Wunderground v.1.15,2013-05-23 04:00:00,
2013-05-23 00:05:00,66.7,64.0,29.87,WSW,246,0.0,0.0,91,0.00,,,0.00,Wunderground v.1.15,2013-05-23 04:05:00,
2013-05-23 00:10:00,66.7,64.0,29.87,WSW,246,0.0,0.0,91,0.00,,,0.00,Wunderground v.1.15,2013-05-23 04:10:00,
2013-05-23 00:15:00,66.6,63.9,29.87,WSW,246,0.0,0.0,91,0.00,,,0.00,Wunderground v.1.15,2013-05-23 04:15:00,
2013-05-23 00:20:00,66.5,64.1,29.87,WSW,246,0.0,0.0,92,0.00,,,0.00,Wunderground v.1.15,2013-05-23 04:20:00,
2013-05-23 00:30:00,66.5,63.8,29.87,WSW,247,0.0,3.0,91,0.00,,,-99.99,WeatherLink 6.0.2,2013-05-23 04:30:00,
2013-05-23 00:35:00,66.3,63.9,29.87,WSW,246,0.0,0.0,92,0.00,,,0.00,Wunderground v.1.15,2013-05-23 04:35:00,
2013-05-23 00:40:00,66.3,63.9,29.87,WSW,246,0.0,0.0,92,0.00,,,0.00,Wunderground v.1.15,2013-05-23 04:40:00,
2013-05-23 00:50:00,66.3,63.9,29.87,WSW,246,0.0,0.0,92,0.00,,,0.00,Wunderground v.1.15,2013-05-23 04:50:00,
2013-05-23 01:00:00,66.4,64.0,29.86,WSW,246,0.0,0.0,92,0.00,,,0.00,Wunderground v.1.15,2013-05-23 05:00:00,
2013-05-23 01:10:00,66.5,64.1,29.86,WSW,239,0.0,0.0,92,0.00,,,0.00,Wunderground v.1.15,2013-05-23 05:10:00,
2013-05-23 01:20:00,66.7,64.6,29.86,North,1,0.0,1.0,93,0.00,,,0.00,Wunderground v.1.15,2013-05-23 05:20:00,
2013-05-23 01:30:00,67.0,64.9,29.86,ENE,65,0.0,0.0,93,0.00,,,0.00,Wunderground v.1.15,2013-05-23 05:30:00,
2013-05-23 01:40:00,67.3,65.2,29.85,ENE,65,0.0,0.0,93,0.00,,,0.00,Wunderground v.1.15,2013-05-23 05:40:00,
2013-05-23 01:50:00,67.3,64.9,29.85,North,356,0.0,1.0,92,0.00,,,0.00,Wunderground v.1.15,2013-05-23 05:50:00,
2013-05-23 02:00:00,67.2,64.5,29.85,ENE,67,0.0,2.0,91,0.00,,,-99.99,WeatherLink 6.0.2,2013-05-23 06:00:00,
2013-05-23 02:10:00,66.9,64.5,29.85,NNW,328,0.0,0.0,92,0.00,,,0.00,Wunderground v.1.15,2013-05-23 06:10:00,
2013-05-23 02:20:00,66.5,64.1,29.84,NNW,328,0.0,0.0,92,0.00,,,0.00,Wunderground v.1.15,2013-05-23 06:20:00,
2013-05-23 02:30:00,66.1,64.0,29.84,North,356,0.0,0.0,93,0.00,,,0.00,Wunderground v.1.15,2013-05-23 06:30:00,
2013-05-23 02:40:00,66.1,64.0,29.84,WNW,290,0.0,0.0,93,0.00,,,0.00,Wunderground v.1.15,2013-05-23 06:40:00,
2013-05-23 02:50:00,65.8,63.7,29.84,West,274,0.0,0.0,93,0.00,,,0.00,Wunderground v.1.15,2013-05-23 06:50:00,
2013-05-23 03:00:00,65.9,63.8,29.84,West,270,0.0,3.0,93,0.00,,,-99.99,WeatherLink 6.0.2,2013-05-23 07:00:00,
2013-05-23 03:10:00,66.2,64.1,29.84,SW,219,1.0,1.0,93,0.00,,,0.00,Wunderground v.1.15,2013-05-23 07:10:00,
2013-05-23 03:20:00,66.3,64.2,29.84,SW,232,0.0,0.0,93,0.00,,,0.00,Wunderground v.1.15,2013-05-23 07:20:00,
2013-05-23 03:30:00,66.5,64.4,29.85,SW,233,1.0,1.0,93,0.00,,,0.00,Wunderground v.1.15,2013-05-23 07:30:00,
2013-05-23 03:40:00,66.6,64.5,29.85,WSW,238,1.0,1.0,93,0.00,,,0.00,Wunderground v.1.15,2013-05-23 07:40:00,
2013-05-23 03:50:00,66.5,64.4,29.85,WSW,240,1.0,1.0,93,0.00,,,0.00,Wunderground v.1.15,2013-05-23 07:50:00,
2013-05-23 04:00:00,66.5,64.4,29.84,WSW,247,1.0,4.0,93,0.00,,,-99.99,WeatherLink 6.0.2,2013-05-23 08:00:00,
2013-05-23 04:10:00,66.6,64.5,29.85,SSE,167,0.0,0.0,93,0.00,,,0.00,Wunderground v.1.15,2013-05-23 08:10:00,
2013-05-23 04:20:00,66.4,64.3,29.85,SW,234,0.0,1.0,93,0.00,,,0.00,Wunderground v.1.15,2013-05-23 08:20:00,
2013-05-23 04:30:00,66.3,64.2,29.85,SW,225,0.0,3.0,93,0.00,,,-99.99,WeatherLink 6.0.2,2013-05-23 08:30:00,
2013-05-23 04:40:00,66.4,64.3,29.84,SW,234,0.0,0.0,93,0.00,,,0.00,Wunderground v.1.15,2013-05-23 08:40:00,
2013-05-23 04:50:00,66.5,64.4,29.84,SW,227,1.0,2.0,93,0.00,,,0.00,Wunderground v.1.15,2013-05-23 08:50:00,
2013-05-23 05:00:00,66.7,64.6,29.84,South,190,1.0,1.0,93,0.00,,,0.00,Wunderground v.1.15,2013-05-23 09:00:00,
2013-05-23 05:10:00,66.7,64.3,29.85,SW,230,1.0,2.0,92,0.00,,,0.00,Wunderground v.1.15,2013-05-23 09:10:00,
2013-05-23 05:20:00,66.7,64.3,29.84,SW,231,1.0,1.0,92,0.00,,,0.00,Wunderground v.1.15,2013-05-23 09:20:00,
2013-05-23 05:30:00,66.8,64.4,29.85,SW,225,0.0,3.0,92,0.00,,,-99.99,WeatherLink 6.0.2,2013-05-23 09:30:00,
2013-05-23 05:40:00,66.7,64.0,29.85,South,180,1.0,2.0,91,0.00,,,0.00,Wunderground v.1.15,2013-05-23 09:40:00,
2013-05-23 05:50:00,66.5,63.8,29.86,SW,227,1.0,2.0,91,0.00,,,0.00,Wunderground v.1.15,2013-05-23 09:50:00,
2013-05-23 06:00:00,66.6,63.9,29.86,WSW,240,1.0,2.0,91,0.00,,,0.00,Wunderground v.1.15,2013-05-23 10:00:00,
2013-05-23 06:10:00,66.7,64.0,29.86,SW,214,2.0,2.0,91,0.00,,,0.00,Wunderground v.1.15,2013-05-23 10:10:00,
2013-05-23 06:20:00,66.9,64.2,29.87,SSW,205,1.0,1.0,91,0.00,,,0.00,Wunderground v.1.15,2013-05-23 10:20:00,
2013-05-23 06:30:00,67.0,64.3,29.87,SW,227,1.0,1.0,91,0.00,,,0.00,Wunderground v.1.15,2013-05-23 10:30:00,
2013-05-23 06:40:00,67.3,64.3,29.87,SW,223,1.0,1.0,90,0.00,,,0.00,Wunderground v.1.15,2013-05-23 10:40:00,
2013-05-23 06:50:00,67.3,64.3,29.87,SW,227,1.0,2.0,90,0.00,,,0.00,Wunderground v.1.15,2013-05-23 10:50:00,
2013-05-23 07:00:00,67.5,64.5,29.87,SW,222,1.0,1.0,90,0.00,,,0.00,Wunderground v.1.15,2013-05-23 11:00:00,
2013-05-23 07:10:00,67.7,64.7,29.88,SW,221,0.0,0.0,90,0.00,,,0.00,Wunderground v.1.15,2013-05-23 11:10:00,
2013-05-23 07:20:00,67.9,64.9,29.88,SW,234,1.0,1.0,90,0.00,,,0.00,Wunderground v.1.15,2013-05-23 11:20:00,
2013-05-23 07:30:00,68.2,65.2,29.88,SW,225,0.0,3.0,90,0.00,,,-99.99,WeatherLink 6.0.2,2013-05-23 11:30:00,
2013-05-23 07:40:00,68.5,65.4,29.88,SW,223,0.0,0.0,90,0.00,,,0.00,Wunderground v.1.15,2013-05-23 11:40:00,
2013-05-23 07:50:00,68.8,65.4,29.88,SSW,206,0.0,0.0,89,0.00,,,0.00,Wunderground v.1.15,2013-05-23 11:50:00,
2013-05-23 08:00:00,69.5,65.8,29.87,SW,223,1.0,1.0,88,0.00,,,0.00,Wunderground v.1.15,2013-05-23 12:00:00,
2013-05-23 08:10:00,69.9,66.2,29.87,SW,226,1.0,2.0,88,0.00,,,0.00,Wunderground v.1.15,2013-05-23 12:10:00,
2013-05-23 08:20:00,70.6,66.5,29.88,SSW,209,2.0,2.0,87,0.00,,,0.00,Wunderground v.1.15,2013-05-23 12:20:00,
2013-05-23 08:30:00,71.2,66.8,29.88,SSW,209,1.0,1.0,86,0.00,,,0.00,Wunderground v.1.15,2013-05-23 12:30:00,
2013-05-23 08:40:00,71.7,66.9,29.88,South,175,1.0,4.0,85,0.00,,,0.00,Wunderground v.1.15,2013-05-23 12:40:00,
2013-05-23 08:50:00,71.8,67.0,29.88,SW,222,1.0,1.0,85,0.00,,,0.00,Wunderground v.1.15,2013-05-23 12:50:00,
2013-05-23 09:00:00,71.8,67.4,29.88,SW,225,1.0,5.0,86,0.00,,,-99.99,WeatherLink 6.0.2,2013-05-23 13:00:00,
2013-05-23 09:10:00,72.4,67.6,29.88,SSW,206,1.0,1.0,85,0.00,,,0.00,Wunderground v.1.15,2013-05-23 13:10:00,
2013-05-23 09:20:00,72.4,67.3,29.88,South,190,1.0,2.0,84,0.00,,,0.00,Wunderground v.1.15,2013-05-23 13:20:00,
2013-05-23 09:30:00,72.5,67.7,29.88,SSW,195,1.0,2.0,85,0.00,,,0.00,Wunderground v.1.15,2013-05-23 13:30:00,
2013-05-23 09:40:00,72.6,67.8,29.87,SW,223,1.0,2.0,85,0.00,,,0.00,Wunderground v.1.15,2013-05-23 13:40:00,
2013-05-23 09:50:00,72.6,67.8,29.87,SSW,196,1.0,1.0,85,0.00,,,0.00,Wunderground v.1.15,2013-05-23 13:50:00,
2013-05-23 10:00:00,-999.9,-99.9,29.87,North,32767,-999.0,0.0,255,-99.99,,,0.00,Wunderground v.1.15,2013-05-23 14:00:00,
2013-05-23 10:10:00,-999.9,-99.9,29.87,North,32767,-999.0,0.0,255,-99.99,,,0.00,Wunderground v.1.15,2013-05-23 14:10:00,
2013-05-23 10:20:00,-999.9,-99.9,29.87,North,32767,-999.0,0.0,255,-99.99,,,0.00,Wunderground v.1.15,2013-05-23 14:20:00,
2013-05-23 10:30:00,-999.0,-99.9,29.87,North,-999,0.0,0.0,-999,0.00,,,-99.99,WeatherLink 6.0.2,2013-05-23 14:30:00,
2013-05-23 10:40:00,-999.9,-99.9,29.87,North,32767,-999.0,0.0,255,-99.99,,,0.00,Wunderground v.1.15,2013-05-23 14:40:00,
2013-05-23 10:50:00,78.0,69.8,29.87,East,96,2.0,2.0,76,0.00,,,0.00,Wunderground v.1.15,2013-05-23 14:50:00,
2013-05-23 11:00:00,77.9,69.7,29.87,SSE,156,3.0,3.0,76,0.00,,,0.00,Wunderground v.1.15,2013-05-23 15:00:00,
2013-05-23 11:10:00,77.6,68.3,29.86,SW,217,3.0,5.0,73,0.00,,,0.00,Wunderground v.1.15,2013-05-23 15:10:00,
2013-05-23 11:20:00,78.4,67.8,29.86,SW,223,5.0,8.0,70,0.00,,,0.00,Wunderground v.1.15,2013-05-23 15:20:00,
2013-05-23 11:30:00,78.2,69.6,29.86,ESE,109,4.0,4.0,75,0.00,,,0.00,Wunderground v.1.15,2013-05-23 15:30:00,
2013-05-23 11:40:00,77.0,70.7,29.86,SSW,203,2.0,2.0,81,0.00,,,0.00,Wunderground v.1.15,2013-05-23 15:40:00,
2013-05-23 11:50:00,76.8,70.9,29.85,SW,228,1.0,3.0,82,0.00,,,0.00,Wunderground v.1.15,2013-05-23 15:50:00,
2013-05-23 12:00:00,76.0,69.7,29.85,SSW,206,2.0,2.0,81,0.00,,,0.00,Wunderground v.1.15,2013-05-23 16:00:00,
2013-05-23 12:10:00,74.3,68.8,29.86,SSW,203,3.0,3.0,83,1.95,,,0.14,Wunderground v.1.15,2013-05-23 16:10:00,
2013-05-23 12:20:00,72.7,68.9,29.85,West,269,1.0,1.0,88,0.41,,,0.25,Wunderground v.1.15,2013-05-23 16:20:00,
2013-05-23 12:30:00,72.3,69.2,29.84,ENE,74,0.0,0.0,90,0.05,,,0.25,Wunderground v.1.15,2013-05-23 16:30:00,
2013-05-23 12:40:00,72.3,68.5,29.84,SE,124,1.0,4.0,88,2.01,,,0.29,Wunderground v.1.15,2013-05-23 16:40:00,
2013-05-23 12:50:00,72.2,68.4,29.84,SSW,196,1.0,1.0,88,0.06,,,0.29,Wunderground v.1.15,2013-05-23 16:50:00,
2013-05-23 13:00:00,72.3,68.5,29.84,SW,234,1.0,1.0,88,0.00,,,0.29,Wunderground v.1.15,2013-05-23 17:00:00,
2013-05-23 13:10:00,72.2,68.4,29.85,SSW,201,0.0,0.0,88,0.00,,,0.29,Wunderground v.1.15,2013-05-23 17:10:00,
2013-05-23 13:20:00,72.2,68.4,29.85,South,189,6.0,6.0,88,0.20,,,0.29,Wunderground v.1.15,2013-05-23 17:20:00,
2013-05-23 13:30:00,-999.0,-99.9,29.85,SW,225,1.0,6.0,-999,0.04,,,-99.99,WeatherLink 6.0.2,2013-05-23 17:30:00,
2013-05-23 13:35:00,69.5,-99.9,29.84,SSE,151,1.0,1.0,255,1.19,,,0.29,Wunderground v.1.15,2013-05-23 17:35:00,
2013-05-23 13:40:00,69.1,-99.9,29.85,SW,232,1.0,1.0,255,0.17,,,0.29,Wunderground v.1.15,2013-05-23 17:40:00,
2013-05-23 13:50:00,69.2,67.4,29.84,SW,228,1.0,1.0,94,0.13,,,0.52,Wunderground v.1.15,2013-05-23 17:50:00,
2013-05-23 14:00:00,69.3,67.5,29.83,SW,230,1.0,1.0,94,0.06,,,0.53,Wunderground v.1.15,2013-05-23 18:00:00,
2013-05-23 14:10:00,69.5,67.7,29.83,SW,234,2.0,2.0,94,0.06,,,0.54,Wunderground v.1.15,2013-05-23 18:10:00,
2013-05-23 14:20:00,69.5,67.7,29.83,WSW,257,1.0,2.0,94,3.39,,,0.72,Wunderground v.1.15,2013-05-23 18:20:00,
2013-05-23 14:30:00,69.4,67.9,29.83,NE,39,2.0,4.0,95,0.12,,,0.74,Wunderground v.1.15,2013-05-23 18:30:00,
2013-05-23 14:40:00,69.3,67.5,29.83,ENE,76,3.0,3.0,94,0.06,,,0.75,Wunderground v.1.15,2013-05-23 18:40:00,
2013-05-23 14:50:00,69.6,68.1,29.83,ENE,66,1.0,3.0,95,0.76,,,0.78,Wunderground v.1.15,2013-05-23 18:50:00,
2013-05-23 15:00:00,69.4,67.6,29.83,WNW,286,3.0,3.0,94,0.48,,,0.87,Wunderground v.1.15,2013-05-23 19:00:00,
2013-05-23 15:10:00,68.6,66.8,29.82,North,1,3.0,3.0,94,1.15,,,1.22,Wunderground v.1.15,2013-05-23 19:10:00,
2013-05-23 15:20:00,68.8,67.3,29.82,NE,34,1.0,2.0,95,0.15,,,1.33,Wunderground v.1.15,2013-05-23 19:20:00,
2013-05-23 15:30:00,69.3,67.8,29.82,NE,42,1.0,3.0,95,1.08,,,1.38,Wunderground v.1.15,2013-05-23 19:30:00,
2013-05-23 15:40:00,68.9,67.4,29.81,NE,43,4.0,5.0,95,0.07,,,1.43,Wunderground v.1.15,2013-05-23 19:40:00,
2013-05-23 15:50:00,69.1,67.6,29.81,WSW,246,1.0,1.0,95,0.04,,,1.44,Wunderground v.1.15,2013-05-23 19:50:00,
2013-05-23 16:00:00,69.5,68.0,29.81,South,177,1.0,3.0,95,0.04,,,1.44,Wunderground v.1.15,2013-05-23 20:00:00,
2013-05-23 16:10:00,69.4,67.6,29.80,SW,223,2.0,2.0,94,0.00,,,1.45,Wunderground v.1.15,2013-05-23 20:10:00,
2013-05-23 16:20:00,69.0,67.2,29.81,SSE,149,2.0,2.0,94,0.22,,,1.49,Wunderground v.1.15,2013-05-23 20:20:00,
2013-05-23 16:30:00,68.8,66.7,29.82,SSW,209,1.0,1.0,93,0.05,,,1.49,Wunderground v.1.15,2013-05-23 20:30:00,
2013-05-23 16:40:00,68.6,66.2,29.84,WSW,257,3.0,7.0,92,0.00,,,1.50,Wunderground v.1.15,2013-05-23 20:40:00,
2013-05-23 16:50:00,68.8,66.7,29.82,SE,138,3.0,3.0,93,5.24,,,1.65,Wunderground v.1.15,2013-05-23 20:50:00,
2013-05-23 17:00:00,68.6,66.5,29.82,SSW,202,3.0,10.0,93,0.23,,,-99.99,WeatherLink 6.0.2,2013-05-23 21:00:00,
2013-05-23 17:10:00,68.6,66.5,29.82,SSW,196,1.0,1.0,93,0.00,,,1.67,Wunderground v.1.15,2013-05-23 21:10:00,
2013-05-23 17:20:00,68.8,66.7,29.81,SSW,205,1.0,1.0,93,0.00,,,1.67,Wunderground v.1.15,2013-05-23 21:20:00,
2013-05-23 17:30:00,68.8,66.7,29.81,SSW,211,0.0,1.0,93,0.00,,,1.67,Wunderground v.1.15,2013-05-23 21:30:00,
2013-05-23 17:40:00,68.5,66.4,29.81,ESE,109,1.0,2.0,93,0.00,,,1.67,Wunderground v.1.15,2013-05-23 21:40:00,
2013-05-23 17:50:00,68.5,66.1,29.80,SE,144,2.0,2.0,92,0.00,,,1.67,Wunderground v.1.15,2013-05-23 21:50:00,
2013-05-23 18:00:00,68.2,65.5,29.82,SSE,157,1.0,7.0,91,0.00,,,-99.99,WeatherLink 6.0.2,2013-05-23 22:00:00,
2013-05-23 18:10:00,67.7,65.3,29.82,SW,232,1.0,3.0,92,0.00,,,1.67,Wunderground v.1.15,2013-05-23 22:10:00,
2013-05-23 18:20:00,67.4,65.3,29.82,SW,229,1.0,1.0,93,0.00,,,1.67,Wunderground v.1.15,2013-05-23 22:20:00,
2013-05-23 18:30:00,67.4,65.6,29.82,WSW,238,1.0,1.0,94,0.00,,,1.67,Wunderground v.1.15,2013-05-23 22:30:00,
2013-05-23 18:40:00,67.3,65.5,29.81,WSW,239,0.0,1.0,94,0.00,,,1.67,Wunderground v.1.15,2013-05-23 22:40:00,
2013-05-23 18:50:00,67.3,65.5,29.80,NE,52,1.0,1.0,94,0.00,,,1.67,Wunderground v.1.15,2013-05-23 22:50:00,
2013-05-23 19:00:00,67.6,65.8,29.80,NE,48,2.0,4.0,94,0.00,,,1.67,Wunderground v.1.15,2013-05-23 23:00:00,
2013-05-23 19:10:00,-999.9,-99.9,29.80,North,32767,-999.0,0.0,255,-99.99,,,1.67,Wunderground v.1.15,2013-05-23 23:10:00,
2013-05-23 19:20:00,-999.9,-99.9,29.80,North,32767,-999.0,0.0,255,-99.99,,,1.67,Wunderground v.1.15,2013-05-23 23:20:00,
2013-05-23 19:30:00,-999.9,-99.9,29.80,North,32767,-999.0,0.0,255,-99.99,,,1.67,Wunderground v.1.15,2013-05-23 23:30:00,
2013-05-23 19:40:00,-999.9,-99.9,29.80,North,32767,-999.0,0.0,255,-99.99,,,1.67,Wunderground v.1.15,2013-05-23 23:40:00,
2013-05-23 19:50:00,-999.9,-99.9,29.80,North,32767,-999.0,0.0,255,-99.99,,,1.67,Wunderground v.1.15,2013-05-23 23:50:00,
2013-05-23 20:00:00,-999.0,-99.9,29.80,North,-999,0.0,0.0,-999,0.00,,,-99.99,WeatherLink 6.0.2,2013-05-24 00:00:00,
2013-05-23 20:10:00,-999.9,-99.9,29.81,North,32767,-999.0,0.0,255,-99.99,,,1.67,Wunderground v.1.15,2013-05-24 00:10:00,
2013-05-23 20:20:00,-999.9,-99.9,29.81,North,32767,-999.0,0.0,255,-99.99,,,1.67,Wunderground v.1.15,2013-05-24 00:20:00,
2013-05-23 20:30:00,-999.0,-99.9,29.81,North,-999,0.0,0.0,-999,0.00,,,-99.99,WeatherLink 6.0.2,2013-05-24 00:30:00,
2013-05-23 20:40:00,66.0,64.5,29.80,WSW,255,0.0,0.0,95,0.00,,,2.02,Wunderground v.1.15,2013-05-24 00:40:00,
2013-05-23 20:50:00,66.0,64.5,29.80,SE,125,1.0,1.0,95,0.00,,,2.02,Wunderground v.1.15,2013-05-24 00:50:00,
2013-05-23 21:00:00,66.1,64.6,29.80,SE,134,1.0,1.0,95,0.00,,,2.02,Wunderground v.1.15,2013-05-24 01:00:00,
2013-05-23 21:10:00,66.0,64.5,29.80,SSW,208,2.0,2.0,95,0.00,,,2.02,Wunderground v.1.15,2013-05-24 01:10:00,
2013-05-23 21:20:00,65.9,64.1,29.80,South,180,1.0,1.0,94,0.00,,,2.02,Wunderground v.1.15,2013-05-24 01:20:00,
2013-05-23 21:30:00,65.8,64.0,29.80,South,180,2.0,8.0,94,0.35,,,-99.99,WeatherLink 6.0.2,2013-05-24 01:30:00,
2013-05-23 21:40:00,65.7,63.9,29.79,South,189,2.0,3.0,94,0.00,,,2.02,Wunderground v.1.15,2013-05-24 01:40:00,
2013-05-23 21:50:00,65.5,63.7,29.79,South,177,2.0,3.0,94,0.00,,,2.02,Wunderground v.1.15,2013-05-24 01:50:00,
2013-05-23 22:00:00,65.6,63.8,29.79,SSW,207,2.0,3.0,94,0.00,,,2.02,Wunderground v.1.15,2013-05-24 02:00:00,
2013-05-23 22:10:00,65.5,63.7,29.79,WSW,238,2.0,5.0,94,0.00,,,2.02,Wunderground v.1.15,2013-05-24 02:10:00,
2013-05-23 22:20:00,65.4,63.6,29.79,WSW,246,2.0,2.0,94,0.00,,,2.02,Wunderground v.1.15,2013-05-24 02:20:00,
2013-05-23 22:30:00,65.4,63.9,29.79,SW,225,2.0,8.0,95,0.00,,,-99.99,WeatherLink 6.0.2,2013-05-24 02:30:00,
2013-05-23 22:40:00,65.4,63.6,29.79,SW,228,2.0,2.0,94,0.00,,,2.02,Wunderground v.1.15,2013-05-24 02:40:00,
2013-05-23 22:50:00,65.3,63.5,29.78,SW,236,1.0,1.0,94,0.00,,,2.02,Wunderground v.1.15,2013-05-24 02:50:00,
2013-05-23 23:00:00,65.2,63.4,29.78,WSW,238,1.0,2.0,94,0.00,,,2.02,Wunderground v.1.15,2013-05-24 03:00:00,
2013-05-23 23:10:00,65.2,63.4,29.77,South,178,1.0,3.0,94,0.00,,,2.02,Wunderground v.1.15,2013-05-24 03:10:00,
2013-05-23 23:20:00,65.2,63.4,29.76,SSW,201,2.0,2.0,94,0.00,,,2.02,Wunderground v.1.15,2013-05-24 03:20:00,
2013-05-23 23:30:00,65.3,63.8,29.76,SW,215,1.0,1.0,95,0.00,,,2.02,Wunderground v.1.15,2013-05-24 03:30:00,
2013-05-23 23:40:00,65.3,63.5,29.76,SW,223,1.0,1.0,94,0.00,,,2.02,Wunderground v.1.15,2013-05-24 03:40:00,
2013-05-23 23:50:00,65.2,63.7,29.76,SSW,195,1.0,1.0,95,0.00,,,2.02,Wunderground v.1.15,2013-05-24 03:50:00,